Faisal Obaid

Chefscout - Al Shabab
3 Apr 2027
Samstag
Verarbeitung

Persönlichkeit

Anpassungsfähigkeit (15) Ehrgeiz (1) Kontroverse (1) Loyalität (9) Druck (18) Professionalität (13) Fairness (20) Temperament (4)

Profil

Trainerstil Demokratisch
Lizenz Nationale B
Entschlossenheit 7
Menschenführung 4
Motivation 5
Disziplin 10
Arbeitszufriedenheit
66%
Ermüdung
0%
Rolle Chefscout
Gehalt 85.9K p/W
Vertrag 14.03.2029

Leistung

Verhalten Gut
Trainingseffektivität
23%
Spielerentwicklung
35%
Verletzungsprävention
40%
Taktische Umsetzung
40%

Letzte Ereignisse

Nahm an einer Scouting-Besprechung teil jetzt
Empfahl ein Transferziel jetzt
Nahm an einer Scouting-Besprechung teil jetzt
Spieler begutachtet jetzt
Spieler begutachtet 7T her
Spieler begutachtet 7T her
Spieler begutachtet 7T her
Spieler begutachtet 7T her

Aktuell beobachtet

159
Spieler Verein Status Fähigkeit Vertrauen Beobachtet Zuletzt beobachtet Letzte Stimme
Zakaria Naïdji MC Alger Aktiv 116 / 107 40% 8 02.04.2027 -
Anatole Abang USM Alger Aktiv 106 / 122 40% 2 02.04.2027 -
Mohammad Alsalkhadi Damac Aktiv 114 / 101 40% 1 02.04.2027 -
Martin Sekulić Ural Aktiv 112 / 107 40% 3 31.03.2027 -
Federico Di Francesco Catanzaro Aktiv 115 / 109 40% 2 31.03.2027 -
Joel Pohjanpalo Palermo Aktiv 125 / 123 40% 2 31.03.2027 -
Saeed Baattia Al-Fateh Aktiv 109 / 104 40% 2 31.03.2027 -
Achraf Dari Al Ahly Aktiv 131 / 130 40% 1 31.03.2027 -
Luca Connell Barnsley Aktiv 107 / 110 40% 1 31.03.2027 -
Claudio Morra Vicenza Aktiv 108 / 121 40% 2 28.03.2027 -
Marco Tumminello Benevento Aktiv 122 / 120 40% 1 28.03.2027 -
Kahraba ENPPI Aktiv 104 / 101 40% 1 28.03.2027 -
Camillo Tavernelli Arezzo Aktiv 115 / 111 40% 2 27.03.2027 -
Lorenzo Di Stefano Torres Aktiv 109 / 118 40% 1 27.03.2027 -
Moussa Koné Al-Ra'ed Aktiv 113 / 119 40% 1 27.03.2027 -
Peter Olayinka Al-Wehda Aktiv 120 / 119 40% 5 26.03.2027 -
Abdullah Al-Hamddan Al-Nassr Aktiv 109 / 109 40% 8 26.03.2027 -
Danyil Alefirenko Chornomorets Aktiv 111 / 100 40% 3 26.03.2027 -
Sam Nombe Milton Keynes Dons Aktiv 105 / 102 40% 4 25.03.2027 -
Ousmane Camara Sharjah Aktiv 116 / 126 40% 1 25.03.2027 -
Simone Mazzocchi Cosenza Aktiv 113 / 123 40% 1 25.03.2027 -
Peter Itodo Metalist Aktiv 115 / 113 40% 2 24.03.2027 -
Rui Costa Port Vale Aktiv 109 / 111 40% 2 24.03.2027 -
John Okoye Ebuka Ittihad Aktiv 124 / 129 40% 2 24.03.2027 -
David Petrović Al Nasr Aktiv 118 / 120 40% 1 24.03.2027 -
Lindon Emërllahu Polissia Aktiv 117 / 127 40% 1 24.03.2027 -
Yasser El Wensh Masr El Makasa Aktiv 110 / 107 40% 1 24.03.2027 -
Sory Kaba Al Dhafra Aktiv 125 / 113 40% 5 23.03.2027 -
Cauley Woodrow Luton Town Aktiv 108 / 116 40% 2 23.03.2027 -
Facundo Kruspzky Al Wahda Aktiv 115 / 129 40% 4 21.03.2027 -
Carlos Paraco Metalist Aktiv 117 / 111 40% 3 21.03.2027 -
Chico Banza Zamalek Aktiv 121 / 110 40% 1 21.03.2027 -
Matteo Angeli Perugia Aktiv 121 / 112 40% 1 21.03.2027 -
Ahmed Kouka Al Ahly Aktiv 116 / 123 40% 1 21.03.2027 -
Silvère Ganvoula Al-Fayha Aktiv 119 / 111 40% 7 19.03.2027 -
Jack Currie Oxford United Aktiv 127 / 112 40% 1 19.03.2027 -
Kostiantyn Vivcharenko Dynamo Kyiv Aktiv 124 / 114 40% 1 19.03.2027 -
Thauan Lara Portimonense Aktiv 112 / 107 40% 1 19.03.2027 -
Josh Neufville Bradford City Aktiv 111 / 99 40% 2 18.03.2027 -
Lebogang Erasmus Platinum Stars Aktiv 110 / 110 40% 1 18.03.2027 -
Erik Al Ahli Aktiv 121 / 128 40% 1 18.03.2027 -
Ousmane Coumbassa MC Oran Aktiv 114 / 116 40% 2 17.03.2027 -
Zayed Sultan Al Nasr Aktiv 108 / 108 40% 1 17.03.2027 -
Mykola Haiduchyk Polissia Aktiv 114 / 117 40% 2 16.03.2027 -
Mohanad Ali Dibba Aktiv 115 / 106 40% 4 14.03.2027 -
Younes El Bahraoui Al-Taawoun Aktiv 105 / 122 40% 5 14.03.2027 -
Tommaso Biasci Avellino Aktiv 121 / 120 40% 2 14.03.2027 -
Leandrinho Sharjah Aktiv 110 / 117 40% 1 13.03.2027 -
Kyle John Port Vale Aktiv 107 / 93 40% 1 13.03.2027 -
Lewis Freestone Stevenage Aktiv 109 / 105 40% 1 13.03.2027 -
Darwin González Al-Wehda Aktiv 114 / 114 40% 12 11.03.2027 -
Pavel Meleshin Sochi Aktiv 115 / 113 40% 4 10.03.2027 -
Dani Gómez Zaragoza Aktiv 114 / 126 40% 3 09.03.2027 -
Freddie Draper Lincoln City Aktiv 111 / 107 40% 3 09.03.2027 -
Goodman Mosele Chippa United Aktiv 102 / 112 40% 1 09.03.2027 -
Daniel Phillips Stevenage Aktiv 114 / 120 40% 1 09.03.2027 -
Andrea Ciofi Cesena Aktiv 125 / 127 40% 1 09.03.2027 -
Chris Ramos Botafogo Aktiv 126 / 131 40% 1 09.03.2027 -
Cedric Gondo Reggiana Aktiv 115 / 123 40% 1 08.03.2027 -
Giorgos Giakoumakis Al Ain Aktiv 126 / 121 40% 10 06.03.2027 -
Rafael Arace Najran Aktiv 107 / 111 40% 5 06.03.2027 -
Karim El Berkaoui Al Dhafra Aktiv 120 / 111 40% 9 05.03.2027 -
Simone Rabbi Ravenna Aktiv 107 / 112 40% 4 05.03.2027 -
Marcos Cuenca Zaragoza Aktiv 116 / 116 40% 2 05.03.2027 -
Brooklyn Poggenpoel Maritzburg United Aktiv 100 / 113 40% 1 05.03.2027 -
Sinoxolo Kwayiba Chippa United Aktiv 116 / 111 40% 1 05.03.2027 -
Ihor Krasnopir Polissia Aktiv 122 / 112 40% 1 03.03.2027 -
Edarlyn Reyes Arsenal Tula Aktiv 106 / 112 40% 3 01.03.2027 -
Juanjo Narváez Al-Ra'ed Aktiv 115 / 116 40% 6 28.02.2027 -
Isaac Success Al Shaab Aktiv 112 / 117 40% 6 26.02.2027 -
Giuseppe Panico Foggia Aktiv 122 / 111 40% 2 26.02.2027 -
Fabio Abiuso Carrarese Aktiv 117 / 101 40% 1 26.02.2027 -
Miro Dinamo Makhachkala Aktiv 109 / 112 40% 5 25.02.2027 -
Firas Ben Larbi Sharjah Aktiv 120 / 120 40% 8 24.02.2027 -
Ioannis Pittas CSKA Sofia Aktiv 125 / 126 40% 2 23.02.2027 -
Martín Álvarez Barnsley Aktiv 113 / 106 40% 1 22.02.2027 -
Vladislav Sarveli Nizhniy Novgorod Aktiv 109 / 112 40% 1 21.02.2027 -
Mohamed Konaté Akhmat Grozny Aktiv 113 / 111 40% 5 20.02.2027 -
Caio Lucas Al Ain Aktiv 129 / 122 40% 8 17.02.2027 -
Jan Hurtado Volos NPS Aktiv 120 / 113 40% 1 17.02.2027 -
Tenton Yenne Baltika Aktiv 110 / 109 40% 4 14.02.2027 -
Fernand Gouré Westerlo Aktiv 108 / 114 40% 2 14.02.2027 -
Salem Al Kamali Al Jazira Aktiv 116 / 126 40% 8 07.02.2027 -
François Kamano Sochi Aktiv 119 / 120 40% 2 06.02.2027 -
Tedi Cara LNZ Aktiv 120 / 113 40% 2 04.02.2027 -
Frédéric Maciel CSKA 1948 Abgelehnt 113 / 114 40% 2 27.01.2027 Mehr Infos nötig
Facundo Suárez Instituto Aktiv 121 / 114 40% 1 27.01.2027 -
Mikhail Ignatov Sochi Aktiv 116 / 106 40% 3 13.01.2027 -
Igor Serrote Al Jazira Verloren 112 / 111 79% 1 11.01.2027 Befürworten
José Barreto Fehervar Aktiv 117 / 113 40% 1 06.01.2027 -
Dario Vizinger NK Maribor Aktiv 110 / 112 40% 7 04.01.2027 -
Dániel Lukács Puskas Akademia Aktiv 114 / 111 40% 6 03.01.2027 -
Gilson Benchimol Akron Aktiv 112 / 105 40% 1 28.12.2026 -
Patrik Iľko MSK Zilina Aktiv 108 / 114 40% 2 25.12.2026 -
Lukáš Juliš MSK Zilina Aktiv 115 / 110 40% 2 20.12.2026 -
Joel Fameyeh Puskas Akademia Aktiv 104 / 113 40% 1 18.12.2026 -
Fran Brodić MFK Ruzomberok Aktiv 110 / 108 40% 1 16.12.2026 -
Amar Rahmanović Krylya Sovetov Aktiv 115 / 116 40% 1 14.12.2026 -
Krisztofer Horváth Ujpest Aktiv 115 / 114 40% 1 13.12.2026 -
Radek Šiler Podbrezova Aktiv 111 / 113 40% 3 11.12.2026 -
Keagan Hlatshwayo SuperSport United Aktiv 113 / 131 40% 1 11.12.2026 -
Martins Júnior Zira Aktiv 117 / 112 40% 1 11.12.2026 -
Chinedu Geoffrey Krylya Sovetov Aktiv 112 / 112 40% 2 06.12.2026 -
David Barbona Defensa y Justicia Aktiv 127 / 127 40% 3 29.11.2026 -
Nikolay Komlichenko Lokomotiv Moscow Aktiv 126 / 126 40% 3 27.11.2026 -
Andreas Gruber DAC Dunajska Streda Aktiv 117 / 125 40% 2 26.11.2026 -
Lucas González Estudiantes Aktiv 106 / 115 40% 2 26.11.2026 -
Omar Khribin Al Wahda Aktiv 126 / 127 40% 7 21.11.2026 -
Alejandro Melo Temperley Aktiv 114 / 120 40% 3 20.11.2026 -
Juan Pablo Gallego Fehervar Aktiv 102 / 113 40% 1 20.11.2026 -
Malebogo Modise Polokwane City Aktiv 94 / 96 40% 1 20.11.2026 -
Carlos Gutiérrez Montana Aktiv 103 / 108 40% 1 20.11.2026 -
Ľubomír Tupta Neftchi Aktiv 109 / 103 40% 1 18.11.2026 -
Marcelo Torres Gimnasia La Plata Aktiv 117 / 124 40% 2 16.11.2026 -
Berna CSKA 1948 Aktiv 114 / 123 40% 1 16.11.2026 -
Maximiliano Gómez Nacional Aktiv 121 / 125 40% 2 15.11.2026 -
Bruno Al Jazira Aktiv 120 / 108 40% 3 14.11.2026 -
Damián Puebla Orenburg Aktiv 126 / 130 40% 1 14.11.2026 -
Ali Saleh Al Wasl Aktiv 125 / 109 40% 1 14.11.2026 Mehr Infos nötig
Roger Martínez Al-Shabab Aktiv 132 / 134 40% 2 12.11.2026 -
Wandile Duba Bidvest Wits Aktiv 106 / 105 40% 1 09.11.2026 -
Julián Palacios Unión de Santa Fe Aktiv 111 / 119 40% 1 09.11.2026 -
Clayton Diandy Al-Diriyah Aktiv 107 / 103 40% 1 09.11.2026 -
Solomon Tweh Al-Ra'ed Aktiv 103 / 109 40% 3 07.11.2026 -
Jonata Machado Al-Ta'ee Aktiv 98 / 103 40% 1 07.11.2026 -
Agustín Ramírez Inter Aktiv 116 / 116 40% 1 07.11.2026 -
Hammam Al-Hammami Al-Shabab Aktiv 106 / 119 40% 2 06.11.2026 -
Marko Brest Olimpija Ljubljana Aktiv 117 / 110 40% 1 06.11.2026 -
Hernán Luna NK Domzale Aktiv 96 / 97 40% 1 06.11.2026 -
Rodin Quiñónes Dinamo Batumi Aktiv 111 / 104 40% 1 03.11.2026 -
Saleh Abu Al-Shamat Al-Ahli Aktiv 122 / 117 40% 3 02.11.2026 -
Valentín Depietri Talleres Aktiv 118 / 127 40% 1 02.11.2026 -
Thabang Matuludi Polokwane City Aktiv 111 / 107 40% 1 02.11.2026 -
Aiman Yahya Al-Nassr Aktiv 114 / 123 40% 1 30.10.2026 -
Erick Ngcobo Black Aces Aktiv 113 / 112 40% 1 30.10.2026 -
Kevin Agudelo Al Nasr Aktiv 114 / 116 40% 1 26.10.2026 -
Ronaldo Maarman University of Pretoria Aktiv 108 / 110 40% 1 26.10.2026 -
Jay-Roy Grot OB Aktiv 110 / 121 40% 1 25.10.2026 -
Brahima Diarra Al Wahda Aktiv 114 / 116 40% 1 22.10.2026 -
Ukeme Williams Al-Njoom Aktiv 87 / 83 40% 1 22.10.2026 -
Rafael Rodrigues Al Ain Aktiv 117 / 118 40% 1 22.10.2026 -
Juan Pablo Barinaga Patronato Aktiv 111 / 111 40% 2 20.10.2026 -
Omar Shami Al-Ra'ed Aktiv 99 / 93 40% 1 20.10.2026 -
Mohammed Al-Dossary Al-Ra'ed Aktiv 99 / 104 40% 1 20.10.2026 -
Abdulmalik Al-Jaber Al-Nassr Aktiv 98 / 111 40% 1 18.10.2026 -
Stanislav Ivanov Arda Aktiv 114 / 118 40% 1 16.10.2026 -
Vyacheslav Grulev Nizhniy Novgorod Aktiv 115 / 110 40% 1 14.10.2026 -
Moussa Dembélé Al-Ettifaq Aktiv 134 / 123 40% 1 13.10.2026 -
Archil Kakabadze Tskhinvali Aktiv 117 / 114 40% 1 11.10.2026 -
Jean Charles Ahoua Al-Faisaly Aktiv 107 / 102 40% 1 10.10.2026 -
Salem Barayan Al-Batin Aktiv 77 / 82 40% 1 10.10.2026 -
Ramón Mierez Al Nasr Aktiv 116 / 118 40% 1 08.10.2026 -
Gamid Agalarov Dinamo Makhachkala Aktiv 115 / 111 40% 1 06.10.2026 -
Ahmed Khodary Zamalek Aktiv 95 / 107 40% 1 12.09.2026 -
Bogdan Jočić Rubin Aktiv 119 / 108 40% 1 09.09.2026 -
Ibrahim Bayesh Al Dhafra Aktiv 125 / 113 40% 1 09.09.2026 -
Mayed Al-Teneiji Dibba Aktiv 90 / 83 72% 1 24.08.2026 Befürworten
Brayan León Mamelodi Sundowns Aktiv 112 / 112 40% 1 24.08.2026 -
Diego Romero Universitario Aktiv 115 / 124 40% 1 01.08.2026 -